When you browse on this site, cookies collect data to enhance your experience and personalize the content and advertising you see.
Visit our Privacy Policy to learn more. By continuing to use the site, you agree to this use of cookies and data.
EN

Hourly Weather Chorna

Today, 15 August, Saturday

Time Temperature Precipitation Wind Pressure Humidity
00:00 +14°C° 0 mm 4 mps 736 mmHg 72%
01:00 +14°C° 0 mm 4 mps 736 mmHg 70%
02:00 +15°C° 0 mm 4 mps 736 mmHg 67%
03:00 +15°C° 0 mm 4 mps 736 mmHg 66%
04:00 +14°C° 0 mm 4 mps 735 mmHg 65%
05:00 +14°C° 0 mm 4 mps 735 mmHg 64%
06:00 +15°C° 0 mm 4 mps 735 mmHg 64%
07:00 +16°C° 0 mm 5 mps 735 mmHg 65%
08:00 +16°C° 0 mm 5 mps 736 mmHg 65%
09:00 +19°C° 0 mm 5 mps 736 mmHg 63%
10:00 +20°C° 0 mm 6 mps 736 mmHg 60%
11:00 +21°C° 0 mm 6 mps 736 mmHg 58%
12:00 +22°C° 0 mm 6 mps 736 mmHg 56%
13:00 +23°C° 0 mm 6 mps 736 mmHg 55%
14:00 +24°C° 0 mm 6 mps 735 mmHg 53%
15:00 +25°C° 0 mm 5 mps 735 mmHg 55%
16:00 +25°C° 0 mm 5 mps 735 mmHg 56%
17:00 +25°C° 0 mm 4 mps 735 mmHg 57%
18:00 +22°C° 0 mm 5 mps 735 mmHg 58%
19:00 +21°C° 0 mm 5 mps 735 mmHg 58%
20:00 +20°C° 0 mm 5 mps 735 mmHg 58%
21:00 +19°C° 0 mm 5 mps 735 mmHg 56%
22:00 +19°C° 0 mm 5 mps 735 mmHg 53%
23:00 +17°C° 0 mm 5 mps 735 mmHg 50%

Tomorrow, 16 August, Sunday

Time Temperature Precipitation Wind Pressure Humidity
00:00 +17°C° 0 mm 5 mps 735 mmHg 50%
01:00 +18°C° 0 mm 4 mps 735 mmHg 50%
02:00 +17°C° 0 mm 4 mps 735 mmHg 50%
03:00 +17°C° 0 mm 4 mps 735 mmHg 52%
04:00 +17°C° 0 mm 4 mps 735 mmHg 54%
05:00 +15°C° 0 mm 4 mps 735 mmHg 56%
06:00 +17°C° 0 mm 4 mps 735 mmHg 58%
07:00 +18°C° 0 mm 4 mps 736 mmHg 60%
08:00 +18°C° 0 mm 4 mps 736 mmHg 63%
09:00 +20°C° 0 mm 4 mps 736 mmHg 60%
10:00 +22°C° 0 mm 3 mps 736 mmHg 57%
11:00 +25°C° 0 mm 3 mps 737 mmHg 54%
12:00 +25°C° 0 mm 3 mps 737 mmHg 53%
13:00 +26°C° 0 mm 4 mps 736 mmHg 51%
14:00 +27°C° 0 mm 4 mps 736 mmHg 49%
15:00 +26°C° 0 mm 3 mps 736 mmHg 52%
16:00 +26°C° 0 mm 3 mps 736 mmHg 55%
17:00 +25°C° 0 mm 2 mps 736 mmHg 58%
18:00 +24°C° 0 mm 2 mps 736 mmHg 61%
19:00 +21°C° 0 mm 2 mps 736 mmHg 64%
20:00 +20°C° 0 mm 2 mps 736 mmHg 67%
21:00 +19°C° 0 mm 2 mps 736 mmHg 66%
22:00 +18°C° 0 mm 2 mps 736 mmHg 65%
23:00 +17°C° 0 mm 3 mps 736 mmHg 64%

Day after tomorrow, 17 August, Monday

Time Temperature Precipitation Wind Pressure Humidity
00:00 +17°C° 0 mm 3 mps 736 mmHg 63%
01:00 +17°C° 0 mm 3 mps 736 mmHg 62%
02:00 +16°C° 0 mm 3 mps 736 mmHg 61%
03:00 +16°C° 0 mm 3 mps 735 mmHg 61%
04:00 +14°C° 0 mm 3 mps 735 mmHg 60%
05:00 +14°C° 0 mm 3 mps 735 mmHg 59%
06:00 +16°C° 0 mm 3 mps 735 mmHg 60%
07:00 +18°C° 0 mm 4 mps 735 mmHg 60%
08:00 +20°C° 0 mm 4 mps 735 mmHg 61%
09:00 +21°C° 0 mm 4 mps 735 mmHg 57%
10:00 +23°C° 0 mm 5 mps 735 mmHg 52%
11:00 +26°C° 0 mm 5 mps 735 mmHg 47%
12:00 +27°C° 0 mm 5 mps 735 mmHg 46%
13:00 +28°C° 0 mm 5 mps 735 mmHg 45%
14:00 +28°C° 0 mm 5 mps 734 mmHg 44%
15:00 +28°C° 0 mm 4 mps 734 mmHg 46%
16:00 +28°C° 0 mm 4 mps 734 mmHg 47%
17:00 +28°C° 0 mm 3 mps 733 mmHg 48%
18:00 +26°C° 0 mm 3 mps 733 mmHg 51%
19:00 +25°C° 0 mm 2 mps 733 mmHg 53%
20:00 +23°C° 0 mm 2 mps 733 mmHg 55%
21:00 +21°C° 0 mm 2 mps 733 mmHg 52%
22:00 +20°C° 0 mm 2 mps 733 mmHg 49%
23:00 +20°C° 0 mm 3 mps 733 mmHg 47%

18 August, Tuesday

Time Temperature Precipitation Wind Pressure Humidity
00:00 +19°C° 0 mm 3 mps 733 mmHg 46%
01:00 +19°C° 0 mm 2 mps 733 mmHg 45%
02:00 +19°C° 0 mm 2 mps 732 mmHg 44%
03:00 +18°C° 0 mm 2 mps 732 mmHg 48%
04:00 +17°C° 0 mm 2 mps 732 mmHg 51%
05:00 +16°C° 0 mm 2 mps 731 mmHg 55%
06:00 +18°C° 0 mm 2 mps 732 mmHg 58%
07:00 +19°C° 0 mm 2 mps 732 mmHg 61%
08:00 +21°C° 0 mm 2 mps 732 mmHg 64%
09:00 +24°C° 0 mm 2 mps 732 mmHg 61%
10:00 +26°C° 0 mm 2 mps 732 mmHg 58%
11:00 +28°C° 0 mm 2 mps 732 mmHg 56%
12:00 +29°C° 0.2 mm 2 mps 731 mmHg 53%
13:00 +29°C° 0.2 mm 3 mps 731 mmHg 50%
14:00 +30°C° 0.2 mm 3 mps 731 mmHg 47%
15:00 +30°C° 0.1 mm 3 mps 731 mmHg 48%
16:00 +30°C° 0.1 mm 2 mps 730 mmHg 49%
17:00 +30°C° 0.1 mm 2 mps 730 mmHg 50%
18:00 +28°C° 0.3 mm 2 mps 730 mmHg 56%
19:00 +26°C° 0.3 mm 2 mps 730 mmHg 62%
20:00 +24°C° 0.3 mm 2 mps 730 mmHg 69%
21:00 +23°C° 0.3 mm 2 mps 730 mmHg 73%
22:00 +22°C° 0.3 mm 1 mps 730 mmHg 77%
23:00 +21°C° 0.3 mm 1 mps 730 mmHg 82%

19 August, Wednesday

Time Temperature Precipitation Wind Pressure Humidity
00:00 +21°C° 0 mm 1 mps 730 mmHg 82%
01:00 +20°C° 0 mm 2 mps 729 mmHg 82%
02:00 +19°C° 0 mm 2 mps 729 mmHg 83%
03:00 +19°C° 0 mm 2 mps 729 mmHg 83%
04:00 +19°C° 0 mm 2 mps 729 mmHg 82%
05:00 +19°C° 0 mm 2 mps 729 mmHg 82%
06:00 +20°C° 0 mm 2 mps 729 mmHg 79%
07:00 +21°C° 0 mm 2 mps 729 mmHg 76%
08:00 +22°C° 0 mm 3 mps 730 mmHg 74%
09:00 +24°C° 0.1 mm 3 mps 730 mmHg 70%
10:00 +25°C° 0.1 mm 3 mps 730 mmHg 67%
11:00 +26°C° 0.1 mm 3 mps 730 mmHg 64%
12:00 +27°C° 0.1 mm 3 mps 730 mmHg 60%
13:00 +28°C° 0.1 mm 3 mps 730 mmHg 57%
14:00 +28°C° 0.1 mm 3 mps 729 mmHg 53%
15:00 +28°C° 0 mm 2 mps 729 mmHg 54%
16:00 +28°C° 0 mm 2 mps 729 mmHg 55%
17:00 +28°C° 0 mm 2 mps 729 mmHg 56%
18:00 +26°C° 0.5 mm 2 mps 729 mmHg 65%
19:00 +24°C° 0.5 mm 2 mps 729 mmHg 73%
20:00 +21°C° 0.5 mm 2 mps 729 mmHg 81%
21:00 +21°C° 1.1 mm 1 mps 729 mmHg 84%
22:00 +21°C° 1.1 mm 1 mps 729 mmHg 86%
23:00 +20°C° 1.1 mm 1 mps 729 mmHg 88%

20 August, Thursday

Time Temperature Precipitation Wind Pressure Humidity
00:00 +20°C° 0.3 mm 1 mps 729 mmHg 88%
01:00 +20°C° 0.3 mm 1 mps 729 mmHg 88%
02:00 +19°C° 0.3 mm 1 mps 729 mmHg 88%
03:00 +19°C° 0 mm 1 mps 729 mmHg 88%
04:00 +19°C° 0 mm 1 mps 729 mmHg 88%
05:00 +18°C° 0 mm 1 mps 729 mmHg 89%
06:00 +18°C° 0 mm 2 mps 730 mmHg 86%
07:00 +19°C° 0 mm 2 mps 730 mmHg 84%
08:00 +20°C° 0 mm 3 mps 730 mmHg 82%
09:00 +21°C° 0 mm 3 mps 730 mmHg 75%
10:00 +24°C° 0 mm 3 mps 731 mmHg 68%
11:00 +26°C° 0 mm 4 mps 731 mmHg 61%
12:00 +26°C° 0 mm 4 mps 731 mmHg 59%
13:00 +27°C° 0 mm 4 mps 731 mmHg 57%
14:00 +27°C° 0 mm 4 mps 731 mmHg 55%
15:00 +27°C° 0 mm 4 mps 731 mmHg 57%
16:00 +27°C° 0 mm 4 mps 731 mmHg 59%
17:00 +26°C° 0 mm 4 mps 731 mmHg 61%
18:00 +25°C° 0.4 mm 3 mps 732 mmHg 69%
19:00 +22°C° 0.4 mm 3 mps 732 mmHg 76%
20:00 +20°C° 0.4 mm 2 mps 732 mmHg 83%
21:00 +19°C° 0.1 mm 2 mps 733 mmHg 85%
22:00 +19°C° 0.1 mm 2 mps 733 mmHg 87%
23:00 +18°C° 0.1 mm 2 mps 733 mmHg 89%
Show more